カタログに戻る

STARLINK-34926

運用中通信SSO
NORAD 65194·PAYLOAD·🇺🇸 United States

打ち上げ Aug 14, 2025 から Vandenberg Space Force Base

Loading…

次のパス (今後24時間)

TLE

最新Source: CelesTrak SupGP

元期: Sep 15, 2026, 02:42 UTC

1 65194C 25175W   26258.11298611  .00042129  00000+0  13073-2 0  2588
2 65194  97.2843 127.1433 0001822  93.9893 318.9932 15.33429683    15

AllMySatでSTARLINK-34926をリアルタイム追跡

Download on the App Store